Tracking 25689 objects as of 7-Jul-2022
HD Live streaming from Space Station
objects crossing your sky now

FENGYUN 1C DEB

Track FENGYUN 1C DEB now!
10-day predictions


NORAD ID: 33731
Int'l Code: 1999-025DHU
Perigee: 840.2 km
Apogee: 1,044.4 km
Inclination: 99.4 °
Period: 103.7 minutes
Semi major axis: 7313 km
RCS: 0.0076 m2 (small)
Launch date: May 10, 1999
Source: People's Republic of China (PRC)
Launch site: Taiyaun Space Center, China (TSC)

Note: This is SATELLITE DEBRIS
aabbcc
Your satellite tracking list
Your tracking list is empty




NASA's NSSDC Master Catalog

Two Line Element Set (TLE):
1 33731U 99025DHU 22186.21346410  .00000687  00000-0  56838-3 0  9996
2 33731  99.4218 168.8717 0139597 190.0407 169.7954 13.88140687729741
Source of the keplerian elements: AFSPC